[[{"header":{"parameterUnit":"m.s-1","parameterCategory":1,"la1":30.2991,"la2":30.254,"lo1":-89.0895,"lo2":-89.0444,"dy":0.0017,"dx":0.0017,"nx":28,"ny":28,"refTime":"2025-06-09T21:00:00:Z","depth":0,"parameterNumber":2,"parameterNumberName":"U-component_of_WINDS"},"data":[0,0,0,0,0,0,0,0,0,0,0,0,0,0,0,0,0,0,0,0,0,0,0,0,0,0,0,0,0,0,0,0,0,0,0,0,0,0,0,0,0,0,0,0,0,0,0,0,0,0,0,0,0,0,0,0,0,0,1.3558,1.3559,0,1.3635,1.3635,1.3636,1.3553,1.355,1.3547,1.3544,1.3629,1.3634,1.3639,0,0,0,0,0,0,0,0,0,0,0,0,0,1.3348,1.3352,1.3558,1.3559,1.356,1.3634,1.3636,1.3637,1.3554,1.355,1.3546,1.3542,1.3627,1.3633,1.3639,0,0,0,0,0,0,0,0,0,0,0,0,0,1.3433,1.3354,1.3558,1.3527,1.3525,1.3634,1.3636,1.3637,1.3554,1.355,1.3545,1.354,1.3625,1.3632,1.364,1.3785,0,0,1.3664,1.3668,0,0,0,0,0,0,0,0,1.3429,1.3441,1.3531,1.353,1.3528,1.3579,1.3592,1.3687,1.3556,1.3544,1.3544,1.3538,1.3617,1.3625,1.365,1.3789,1.3793,1.3665,1.367,1.3673,1.3675,0,0,0,0,0,0,0,1.3423,1.3438,1.3589,1.3532,1.3531,1.3512,1.3519,1.361,1.3606,1.3544,1.3538,1.3548,1.3615,1.3642,1.3651,1.3794,1.3665,1.3672,1.3677,1.368,1.4057,1.4062,0,0,0,0,0,0,1.3419,1.3433,1.3586,1.3591,1.3465,1.352,1.3528,1.3568,1.3605,1.3606,1.3552,1.3544,1.3631,1.3642,1.3654,1.3826,1.3673,1.368,1.3685,1.4052,1.4058,1.4064,0,0,0,0,0,0,1.3415,1.3434,1.3583,1.351,1.3528,1.3529,1.3574,1.3572,1.3599,1.3611,1.3611,1.3581,1.3628,1.3643,1.3753,1.3828,1.3684,1.3691,1.4046,1.4054,1.4061,1.4173,0,0,0,0,0,0,1.341,1.3433,1.3486,1.3512,1.3532,1.3679,1.3579,1.3577,1.3612,1.3602,1.3638,1.3639,1.3625,1.3742,1.3761,1.3837,1.3697,1.4039,1.4049,1.4059,1.4162,1.4183,1.4202,0,0,0,0,0,1.3402,1.3515,1.3489,1.3508,1.3598,1.3683,1.3695,1.3675,1.3619,1.3673,1.3681,1.3638,1.3817,1.3753,1.3774,1.3854,1.4034,1.4046,1.4058,1.4153,1.4179,1.4201,0,0,0,0,0,0,1.35,1.3518,1.3489,1.3613,1.3647,1.3669,1.3737,1.3703,1.3755,1.3744,1.3719,1.3728,1.3845,1.386,1.3789,1.3997,1.3917,1.3933,1.3982,1.4007,1.4026,1.402,1.3704,0,0,0,0,0,1.3535,1.3601,1.3614,1.3723,1.3741,1.3737,1.3773,1.3755,1.3789,1.3804,1.382,1.3857,1.3922,1.3965,1.4025,1.4164,1.4172,1.4229,1.4249,1.4265,1.428,1.4356,1.4382,1.4103,1.4103,1.4103,0,0,1.361,1.3628,1.3671,1.3743,1.3767,1.3837,1.3749,1.3827,1.388,1.3816,1.3921,1.3934,1.3974,1.41,1.4156,1.4116,1.4359,1.428,1.4293,1.4299,1.4371,1.4398,1.4421,1.4111,1.411,1.4109,0,0,1.3783,1.3802,1.3895,1.3921,1.3958,1.3954,1.3977,1.4004,1.401,1.4114,1.4068,1.4132,1.4244,1.4275,1.4305,1.4491,1.4454,1.4512,1.4615,1.4689,1.4711,1.4731,1.4798,1.4823,1.4527,1.4527,1.4527,0,1.3872,1.3973,1.3948,1.4029,1.4063,1.4007,1.4103,1.413,1.4186,1.4212,1.4166,1.4306,1.4329,1.4461,1.4507,1.4533,1.456,1.4508,1.471,1.4729,1.4747,1.4811,1.4836,1.4534,1.4533,1.4532,1.4532,0,1.4082,1.4154,1.4225,1.4278,1.432,1.4408,1.4399,1.4445,1.4424,1.4426,1.4534,1.456,1.4625,1.4655,1.4636,1.4786,1.476,1.4713,1.4632,1.4781,1.4841,1.4865,1.4544,1.4541,1.4539,1.4537,0,0,1.4316,1.4355,1.4382,1.4406,1.4443,1.45,1.4587,1.4649,1.4689,1.473,1.4804,1.49,1.4857,1.4892,1.4876,1.4941,1.5089,1.4886,1.4887,1.4924,1.5258,1.5293,1.5322,1.5064,1.5069,1.5072,1.5254,0,1.449,1.4638,1.4619,1.4762,1.4829,1.4778,1.4854,1.4887,1.4892,1.4952,1.4958,1.5027,1.4964,1.4985,1.5048,1.5057,1.5156,1.5044,1.5135,1.5138,1.5126,1.5353,1.5391,1.5561,1.5278,1.5282,1.5284,0,1.4711,1.4759,1.4908,1.4937,1.4964,1.5033,1.5089,1.5146,1.5183,1.5182,1.5222,1.5195,1.5285,1.5202,1.5327,1.5252,1.5288,1.5299,1.5305,1.5313,1.5221,1.5368,1.5615,1.5641,1.5321,1.5318,1.5315,0,1.4868,1.497,1.5073,1.5095,1.5131,1.518,1.5198,1.523,1.5269,1.5319,1.5345,1.5405,1.5439,1.5488,1.5479,1.5419,1.5607,1.5523,1.5611,1.5611,1.5652,1.565,1.5909,1.5675,1.5675,1.5674,1.5674,0,1.5064,1.5158,1.5144,1.5207,1.5312,1.529,1.5395,1.5407,1.5436,1.5503,1.5464,1.5528,1.5511,1.5576,1.557,1.5675,1.5691,1.5694,1.5691,1.5698,1.5698,1.5721,1.571,1.5681,1.568,1.5678,1.5677,0,1.5256,1.5251,1.536,1.5385,1.5393,1.5469,1.5492,1.5553,1.5555,1.564,1.5659,1.5664,1.5737,1.5733,1.5817,1.5813,1.5943,1.5926,1.593,1.5927,1.6015,1.6007,1.6299,1.6337,1.6078,1.608,1.6082,0,1.5381,1.5452,1.5485,1.5526,1.5546,1.5613,1.5652,1.5635,1.5678,1.5727,1.5783,1.5853,1.5908,1.6028,1.6041,1.6105,1.609,1.6188,1.61,1.6104,1.6093,1.6089,1.6097,1.6206,1.6208,1.6211,1.6213,0,1.5604,1.5598,1.5655,1.5713,1.5761,1.5805,1.5846,1.5883,1.587,1.5921,1.5995,1.6038,1.6123,1.6194,1.6256,1.6276,1.6244,1.624,1.6264,1.6272,1.6271,1.6274,1.5978,1.6234,1.6232,1.623,1.6229,1.6228,1.5767,1.5828,1.5861,1.5927,1.5956,1.5995,1.6054,1.6064,1.6125,1.6191,1.6178,1.6262,1.63,1.638,1.6407,1.6473,1.6439,1.6473,1.6482,1.6491,1.6501,1.626,1.6485,1.6484,1.6483,1.6483,1.6483,0,1.5988,1.6007,1.6068,1.6126,1.6179,1.6142,1.6186,1.6233,1.6306,1.6344,1.6399,1.6485,1.6554,1.6572,1.6639,1.6689,1.6676,1.6707,1.6704,1.671,1.6528,1.6501,1.6717,1.6717,1.6717,1.6717,1.6717,1.6717,1.6109,1.6211,1.621,1.6327,1.6346,1.6426,1.6455,1.6492,1.6522,1.662,1.6676,1.6687,1.6718,1.6787,1.6849,1.6853,1.688,1.6917,1.6916,1.6746,1.6722,1.67,1.6674,1.6923,1.6924,1.7092,1.7093,1.7094]},{"header":{"parameterUnit":"m.s-1","parameterCategory":1,"la1":30.2991,"la2":30.254,"lo1":-89.0895,"lo2":-89.0444,"dy":0.0017,"dx":0.0017,"nx":28,"ny":28,"refTime":"2025-06-09T21:00:00:Z","depth":0,"parameterNumber":3,"parameterNumberName":"V-component_of_WINDS"},"data":[0,0,0,0,0,0,0,0,0,0,0,0,0,0,0,0,0,0,0,0,0,0,0,0,0,0,0,0,0,0,0,0,0,0,0,0,0,0,0,0,0,0,0,0,0,0,0,0,0,0,0,0,0,0,0,0,0,0,3.5893,3.5896,0,3.6137,3.614,3.6143,3.6129,3.6126,3.6122,3.6119,3.6365,3.6375,3.6384,0,0,0,0,0,0,0,0,0,0,0,0,0,3.5411,3.542,3.5893,3.5896,3.5899,3.6137,3.614,3.6143,3.613,3.6126,3.6121,3.6117,3.6362,3.6373,3.6385,0,0,0,0,0,0,0,0,0,0,0,0,0,3.5634,3.5423,3.5893,3.5921,3.5926,3.6136,3.614,3.6144,3.6131,3.6126,3.612,3.6115,3.6358,3.6372,3.6387,3.6583,0,0,3.6432,3.6438,0,0,0,0,0,0,0,0,3.5622,3.5652,3.5914,3.592,3.5926,3.6098,3.606,3.6291,3.6132,3.6053,3.6119,3.6113,3.628,3.6301,3.6358,3.6594,3.6605,3.6433,3.6442,3.6448,3.6453,0,0,0,0,0,0,0,3.5606,3.5641,3.5989,3.5918,3.5925,3.592,3.5946,3.6104,3.6193,3.606,3.6059,3.6088,3.6282,3.6344,3.6364,3.6608,3.6433,3.6446,3.6455,3.6461,3.7015,3.7021,0,0,0,0,0,0,3.5585,3.5629,3.5982,3.5997,3.5758,3.5933,3.5962,3.6048,3.6191,3.6208,3.6093,3.6087,3.6321,3.6347,3.6372,3.661,3.6448,3.6462,3.6471,3.701,3.7017,3.7023,0,0,0,0,0,0,3.5575,3.5617,3.5972,3.5813,3.5858,3.5947,3.6043,3.6055,3.6117,3.6216,3.6232,3.614,3.6318,3.6352,3.653,3.6619,3.6469,3.6482,3.7003,3.7012,3.702,3.7088,0,0,0,0,0,0,3.5561,3.5613,3.569,3.5815,3.5866,3.6128,3.6049,3.6064,3.6143,3.6138,3.6264,3.628,3.6317,3.6508,3.6545,3.6636,3.6494,3.6995,3.7007,3.7017,3.7079,3.7098,3.7115,0,0,0,0,0,3.5544,3.5699,3.5694,3.5736,3.5964,3.6133,3.6162,3.6202,3.615,3.6227,3.629,3.6276,3.6603,3.6527,3.6568,3.6665,3.699,3.7003,3.7016,3.707,3.7095,3.7115,0,0,0,0,0,0,3.5581,3.5716,3.5712,3.5912,3.6011,3.613,3.6229,3.6226,3.6342,3.6332,3.6375,3.6403,3.6583,3.6641,3.6554,3.6861,3.6789,3.6811,3.6816,3.684,3.6858,3.684,3.6506,0,0,0,0,0,3.5613,3.574,3.585,3.6016,3.6066,3.6139,3.6214,3.6236,3.634,3.6381,3.6458,3.6558,3.6683,3.6765,3.6885,3.7086,3.7113,3.7173,3.7191,3.7206,3.7225,3.7334,3.7362,3.7067,3.7067,3.7066,0,0,3.5679,3.5769,3.5846,3.6026,3.6105,3.6235,3.6174,3.6314,3.641,3.6402,3.6576,3.6635,3.675,3.694,3.7028,3.6995,3.7312,3.7223,3.7234,3.7245,3.7351,3.7378,3.7403,3.7076,3.7074,3.7073,0,0,3.5867,3.5948,3.6095,3.6175,3.6296,3.6344,3.6378,3.6498,3.6538,3.6713,3.671,3.6823,3.7038,3.7119,3.7189,3.7405,3.7396,3.7443,3.7539,3.7645,3.7668,3.7689,3.7766,3.7793,3.7461,3.7461,3.7461,0,3.5934,3.613,3.617,3.6311,3.6389,3.6389,3.6536,3.6612,3.6766,3.682,3.678,3.7049,3.7126,3.7335,3.7388,3.7444,3.7484,3.7429,3.7662,3.7683,3.7703,3.7777,3.7805,3.7466,3.7465,3.7465,3.7464,0,3.6206,3.6342,3.6446,3.6596,3.6685,3.6829,3.6888,3.6974,3.6988,3.7038,3.7215,3.7308,3.7446,3.7497,3.7511,3.7708,3.7684,3.7653,3.7582,3.7736,3.7805,3.7834,3.7473,3.7471,3.747,3.7469,0,0,3.6426,3.6595,3.6632,3.6699,3.6832,3.6937,3.7079,3.7216,3.7288,3.7394,3.7513,3.7694,3.7666,3.7745,3.7768,3.7861,3.8025,3.7819,3.7822,3.7854,3.8246,3.8269,3.8301,3.8019,3.8025,3.8029,3.8236,0,3.6627,3.6881,3.692,3.7143,3.7268,3.7269,3.7392,3.7486,3.7537,3.7648,3.7703,3.7831,3.7785,3.7832,3.7924,3.7986,3.8104,3.7971,3.813,3.8135,3.8102,3.8337,3.8362,3.8553,3.8264,3.8268,3.8272,0,3.6896,3.7009,3.7245,3.736,3.7414,3.7525,3.7652,3.776,3.7865,3.7895,3.7982,3.7994,3.8139,3.8061,3.8262,3.817,3.8237,3.8277,3.8285,3.8302,3.8213,3.836,3.8615,3.8644,3.8315,3.8312,3.8309,0,3.7031,3.7243,3.7411,3.7469,3.7607,3.7685,3.7745,3.7846,3.7925,3.8036,3.8087,3.8213,3.8282,3.8378,3.8422,3.8361,3.8619,3.8545,3.8647,3.8646,3.8702,3.8698,3.8971,3.8745,3.8744,3.8743,3.8743,0,3.7252,3.7396,3.7474,3.7578,3.7739,3.7781,3.7938,3.7996,3.8085,3.8199,3.8206,3.8312,3.8364,3.8477,3.8512,3.8672,3.8703,3.873,3.8738,3.873,3.8726,3.8775,3.8763,3.8751,3.8749,3.8748,3.8747,0,3.7431,3.749,3.7673,3.7788,3.7821,3.7934,3.8032,3.8132,3.818,3.8324,3.836,3.8436,3.857,3.8623,3.8786,3.881,3.8994,3.8991,3.8959,3.8961,3.906,3.905,3.9374,3.9419,3.9163,3.9165,3.9167,0,3.7569,3.768,3.7807,3.7884,3.7948,3.8072,3.8152,3.8197,3.8281,3.8408,3.8492,3.8626,3.8735,3.8948,3.9017,3.9141,3.9142,3.9246,3.916,3.9148,3.9143,3.9136,3.9147,3.9262,3.9265,3.9267,3.9269,0,3.7806,3.7829,3.7946,3.8073,3.8169,3.8271,3.837,3.8432,3.8492,3.8585,3.8722,3.8807,3.8974,3.9106,3.9233,3.9294,3.9292,3.9295,3.9325,3.9319,3.9296,3.9309,3.9003,3.9288,3.9286,3.9285,3.9284,3.9283,3.7968,3.8066,3.8171,3.8301,3.838,3.8472,3.8571,3.8633,3.8748,3.8889,3.8907,3.9054,3.9154,3.9326,3.9392,3.9506,3.9478,3.9522,3.9533,3.9543,3.955,3.9277,3.9529,3.9528,3.9528,3.9528,3.9527,0,3.8205,3.8272,3.8391,3.853,3.8632,3.8621,3.8729,3.8815,3.8944,3.9039,3.9146,3.9303,3.9431,3.9509,3.9637,3.9713,3.9715,3.9745,3.974,3.9754,3.9567,3.9529,3.9742,3.9742,3.9742,3.9742,3.9742,3.9741,3.8341,3.8506,3.8541,3.8745,3.8811,3.8956,3.9019,3.9103,3.9179,3.9354,3.9461,3.9511,3.9599,3.9733,3.9849,3.9869,3.9916,3.9948,3.9965,3.979,3.9767,3.9746,3.971,3.9958,3.9958,4.0143,4.0145,4.0146]}]]